Time,TemperatureF,DewpointF,PressureIn,WindDirection,WindDirectionDegrees,WindSpeedMPH,WindSpeedGustMPH,Humidity,HourlyPrecipIn,Conditions,Clouds,dailyrainin,SoftwareType,DateUTC
2013-01-13 00:02:00,23.5,21.0,29.91,ESE,115,0.0,0.0,90,0.00,,---,0.00,VWS V14.01,2013-01-13 08:02:00,
2013-01-13 00:07:00,23.5,21.0,29.91,ESE,115,0.0,0.0,90,0.00,,---,0.00,VWS V14.01,2013-01-13 08:07:00,
2013-01-13 00:12:00,23.4,20.9,29.91,ESE,115,0.0,0.0,90,0.00,,---,0.00,VWS V14.01,2013-01-13 08:12:00,
2013-01-13 00:17:00,23.4,20.9,29.91,ESE,115,0.0,0.0,90,0.00,,---,0.00,VWS V14.01,2013-01-13 08:17:00,
2013-01-13 00:22:00,23.4,20.9,29.91,ESE,115,0.0,0.0,90,0.00,,---,0.00,VWS V14.01,2013-01-13 08:22:00,
2013-01-13 00:27:00,23.4,20.9,29.91,ESE,115,0.0,0.0,90,0.00,,---,0.00,VWS V14.01,2013-01-13 08:27:00,
2013-01-13 00:32:00,23.4,20.9,29.91,ESE,115,0.0,0.0,90,0.00,,---,0.00,VWS V14.01,2013-01-13 08:32:00,
2013-01-13 00:37:00,23.4,20.9,29.91,ESE,115,0.0,0.0,90,0.00,,---,0.00,VWS V14.01,2013-01-13 08:37:00,
2013-01-13 00:42:00,23.2,20.7,29.91,ESE,115,0.0,0.0,90,0.00,,---,0.00,VWS V14.01,2013-01-13 08:42:00,
2013-01-13 00:47:00,23.2,20.7,29.91,ESE,115,0.0,0.0,90,0.00,,---,0.00,VWS V14.01,2013-01-13 08:47:00,
2013-01-13 00:52:00,23.0,20.8,29.91,ESE,115,0.0,0.0,91,0.00,,---,0.00,VWS V14.01,2013-01-13 08:52:00,
2013-01-13 00:57:00,23.0,20.8,29.91,ESE,115,0.0,0.0,91,0.00,,---,0.00,VWS V14.01,2013-01-13 08:57:00,
2013-01-13 01:01:00,23.0,20.8,29.91,ESE,115,0.0,0.0,91,0.00,,---,0.00,VWS V14.01,2013-01-13 09:01:00,
2013-01-13 01:06:00,22.8,20.6,29.91,ESE,115,0.0,0.0,91,0.00,,---,0.00,VWS V14.01,2013-01-13 09:06:00,
2013-01-13 01:11:00,22.8,20.6,29.91,ESE,115,0.0,0.0,91,0.00,,---,0.00,VWS V14.01,2013-01-13 09:11:00,
2013-01-13 01:16:00,22.8,20.6,29.91,ESE,115,0.0,0.0,91,0.00,,---,0.00,VWS V14.01,2013-01-13 09:16:00,
2013-01-13 01:21:00,22.8,20.6,29.91,ESE,115,0.0,0.0,91,0.00,,---,0.00,VWS V14.01,2013-01-13 09:21:00,
2013-01-13 01:26:00,22.8,20.6,29.91,ESE,115,0.0,0.0,91,0.00,,---,0.00,VWS V14.01,2013-01-13 09:26:00,
2013-01-13 01:31:00,22.8,20.6,29.91,ESE,115,0.0,0.0,91,0.00,,---,0.00,VWS V14.01,2013-01-13 09:31:00,
2013-01-13 01:36:00,22.8,20.6,29.91,ESE,116,0.0,0.0,91,0.00,,---,0.00,VWS V14.01,2013-01-13 09:36:00,
2013-01-13 01:41:00,22.6,20.1,29.91,ESE,115,0.0,0.0,90,0.00,,---,0.00,VWS V14.01,2013-01-13 09:41:00,
2013-01-13 01:46:00,22.5,20.0,29.91,ESE,115,0.0,0.0,90,0.00,,---,0.00,VWS V14.01,2013-01-13 09:46:00,
2013-01-13 01:51:00,22.5,20.0,29.91,ESE,115,0.0,0.0,90,0.00,,---,0.00,VWS V14.01,2013-01-13 09:51:00,
2013-01-13 01:56:00,22.3,19.8,29.91,ESE,115,0.0,0.0,90,0.00,,---,0.00,VWS V14.01,2013-01-13 09:56:00,
2013-01-13 02:01:00,22.5,20.0,29.91,ESE,115,0.0,0.0,90,0.00,,---,0.00,VWS V14.01,2013-01-13 10:01:00,
2013-01-13 02:06:00,22.3,19.8,29.91,ESE,115,0.0,0.0,90,0.00,,---,0.00,VWS V14.01,2013-01-13 10:06:00,
2013-01-13 02:11:00,22.3,19.8,29.91,ESE,115,0.0,0.0,90,0.00,,---,0.00,VWS V14.01,2013-01-13 10:11:00,
2013-01-13 02:16:00,22.1,19.6,29.91,ESE,116,0.0,0.0,90,0.00,,---,0.00,VWS V14.01,2013-01-13 10:16:00,
2013-01-13 02:21:00,22.1,19.6,29.91,ESE,115,0.0,0.0,90,0.00,,---,0.00,VWS V14.01,2013-01-13 10:21:00,
2013-01-13 02:26:00,22.1,19.6,29.91,ESE,115,0.0,0.0,90,0.00,,---,0.00,VWS V14.01,2013-01-13 10:26:00,
2013-01-13 02:31:00,22.1,19.6,29.91,ESE,115,0.0,0.0,90,0.00,,---,0.00,VWS V14.01,2013-01-13 10:31:00,
2013-01-13 02:36:00,22.1,19.6,29.91,ESE,115,0.0,0.0,90,0.00,,---,0.00,VWS V14.01,2013-01-13 10:36:00,
2013-01-13 02:41:00,21.9,19.4,29.91,ESE,115,0.0,0.0,90,0.00,,---,0.00,VWS V14.01,2013-01-13 10:41:00,
2013-01-13 02:46:00,21.9,19.4,29.91,ESE,115,0.0,0.0,90,0.00,,---,0.00,VWS V14.01,2013-01-13 10:46:00,
2013-01-13 02:51:00,21.9,19.4,29.91,ESE,115,0.0,0.0,90,0.00,,---,0.08,VWS V14.01,2013-01-13 10:51:00,
2013-01-13 02:56:00,21.9,19.4,29.91,ESE,115,0.0,0.0,90,0.00,,---,0.00,VWS V14.01,2013-01-13 10:56:00,
2013-01-13 03:01:00,21.7,19.3,29.94,ESE,115,0.0,0.0,90,0.00,,---,0.00,VWS V14.01,2013-01-13 11:01:00,
2013-01-13 03:06:00,21.7,19.3,29.94,ESE,115,0.0,0.0,90,0.00,,---,0.00,VWS V14.01,2013-01-13 11:06:00,
2013-01-13 03:11:00,21.7,19.3,29.94,ESE,115,0.0,0.0,90,0.00,,---,0.00,VWS V14.01,2013-01-13 11:11:00,
2013-01-13 03:16:00,21.7,19.3,29.91,ESE,115,0.0,0.0,90,0.00,,---,0.00,VWS V14.01,2013-01-13 11:16:00,
2013-01-13 03:21:00,21.7,19.3,29.91,ESE,115,0.0,0.0,90,0.00,,---,0.00,VWS V14.01,2013-01-13 11:21:00,
2013-01-13 03:26:00,21.6,19.1,29.91,ESE,115,0.0,0.0,90,0.00,,---,0.00,VWS V14.01,2013-01-13 11:26:00,
2013-01-13 03:31:00,21.6,19.1,29.91,ESE,115,0.0,0.0,90,0.00,,---,0.00,VWS V14.01,2013-01-13 11:31:00,
2013-01-13 03:36:00,21.6,19.1,29.91,ESE,115,0.0,0.0,90,0.00,,---,0.00,VWS V14.01,2013-01-13 11:36:00,
2013-01-13 03:41:00,21.6,19.1,29.91,ESE,115,0.0,0.0,90,0.00,,---,0.00,VWS V14.01,2013-01-13 11:41:00,
2013-01-13 03:46:00,21.6,19.1,29.91,ESE,115,0.0,0.0,90,0.00,,---,0.00,VWS V14.01,2013-01-13 11:46:00,
2013-01-13 03:51:00,21.6,19.1,29.91,ESE,115,0.0,0.0,90,0.00,,---,0.00,VWS V14.01,2013-01-13 11:51:00,
2013-01-13 03:56:00,21.6,19.1,29.91,ESE,115,0.0,0.0,90,0.00,,---,0.00,VWS V14.01,2013-01-13 11:56:00,
2013-01-13 04:01:00,21.6,19.1,29.91,ESE,115,0.0,0.0,90,0.00,,---,0.00,VWS V14.01,2013-01-13 12:01:00,
2013-01-13 04:06:00,21.6,19.1,29.91,ESE,115,0.0,0.0,90,0.00,,---,0.00,VWS V14.01,2013-01-13 12:06:00,
2013-01-13 04:11:00,21.6,19.1,29.91,ESE,115,0.0,0.0,90,0.00,,---,0.00,VWS V14.01,2013-01-13 12:11:00,
2013-01-13 04:16:00,21.6,19.1,29.91,ESE,115,0.0,0.0,90,0.00,,---,0.00,VWS V14.01,2013-01-13 12:16:00,
2013-01-13 04:21:00,21.6,19.1,29.91,ESE,115,0.0,0.0,90,0.00,,---,0.00,VWS V14.01,2013-01-13 12:21:00,
2013-01-13 04:26:00,21.6,19.1,29.91,ESE,116,0.0,0.0,90,0.00,,---,0.00,VWS V14.01,2013-01-13 12:26:00,
2013-01-13 04:31:00,21.6,19.1,29.91,ESE,115,0.0,0.0,90,0.00,,---,0.00,VWS V14.01,2013-01-13 12:31:00,
2013-01-13 04:36:00,21.6,19.1,29.91,ESE,115,0.0,0.0,90,0.00,,---,0.00,VWS V14.01,2013-01-13 12:36:00,
2013-01-13 04:41:00,21.4,18.9,29.91,ESE,115,0.0,0.0,90,0.00,,---,0.00,VWS V14.01,2013-01-13 12:41:00,
2013-01-13 04:46:00,21.4,18.9,29.91,ESE,115,0.0,0.0,90,0.00,,---,0.00,VWS V14.01,2013-01-13 12:46:00,
2013-01-13 04:51:00,21.4,18.9,29.91,ESE,115,0.0,0.0,90,0.00,,---,0.00,VWS V14.01,2013-01-13 12:51:00,
2013-01-13 04:56:00,21.4,18.9,29.91,ESE,115,0.0,0.0,90,0.00,,---,0.00,VWS V14.01,2013-01-13 12:56:00,
2013-01-13 05:01:00,21.4,18.9,29.91,ESE,115,0.0,0.0,90,0.00,,---,0.00,VWS V14.01,2013-01-13 13:01:00,
2013-01-13 05:06:00,21.4,19.2,29.91,ESE,115,0.0,0.0,91,0.00,,---,0.00,VWS V14.01,2013-01-13 13:06:00,
2013-01-13 05:11:00,21.6,19.3,29.91,ESE,115,0.0,0.0,91,0.00,,---,0.00,VWS V14.01,2013-01-13 13:11:00,
2013-01-13 05:16:00,21.6,19.3,29.91,ESE,115,0.0,0.0,91,0.00,,---,0.00,VWS V14.01,2013-01-13 13:16:00,
2013-01-13 05:21:00,21.4,19.2,29.91,ESE,115,0.0,0.0,91,0.00,,---,0.00,VWS V14.01,2013-01-13 13:21:00,
2013-01-13 05:26:00,21.4,19.2,29.91,ESE,115,0.0,0.0,91,0.00,,---,0.00,VWS V14.01,2013-01-13 13:26:00,
2013-01-13 05:31:00,21.4,19.2,29.91,ESE,115,0.0,0.0,91,0.00,,---,0.00,VWS V14.01,2013-01-13 13:31:00,
2013-01-13 05:36:00,21.4,19.2,29.91,ESE,115,0.0,0.0,91,0.00,,---,0.00,VWS V14.01,2013-01-13 13:36:00,
2013-01-13 05:41:00,21.4,19.2,29.91,ESE,115,0.0,0.0,91,0.00,,---,0.00,VWS V14.01,2013-01-13 13:41:00,
2013-01-13 05:46:00,21.4,19.2,29.91,ESE,115,0.0,0.0,91,0.00,,---,0.00,VWS V14.01,2013-01-13 13:46:00,
2013-01-13 05:51:00,21.4,19.2,29.91,ESE,116,0.0,0.0,91,0.00,,---,0.00,VWS V14.01,2013-01-13 13:51:00,
2013-01-13 05:56:00,21.6,19.3,29.91,ESE,115,0.0,0.0,91,0.00,,---,0.00,VWS V14.01,2013-01-13 13:56:00,
2013-01-13 06:01:00,21.6,19.3,29.91,ESE,115,0.0,0.0,91,0.00,,---,0.00,VWS V14.01,2013-01-13 14:01:00,
2013-01-13 06:06:00,21.6,19.3,29.91,ESE,115,0.0,0.0,91,0.00,,---,0.00,VWS V14.01,2013-01-13 14:06:00,
2013-01-13 06:11:00,21.6,19.3,29.91,ESE,115,0.0,0.0,91,0.00,,---,0.00,VWS V14.01,2013-01-13 14:11:00,
2013-01-13 06:16:00,21.6,19.3,29.91,ESE,115,0.0,0.0,91,0.00,,---,0.00,VWS V14.01,2013-01-13 14:16:00,
2013-01-13 06:21:00,21.6,19.3,29.91,ESE,115,0.0,0.0,91,0.00,,---,0.00,VWS V14.01,2013-01-13 14:21:00,
2013-01-13 06:26:00,21.6,19.3,29.91,ESE,115,0.0,0.0,91,0.00,,---,0.00,VWS V14.01,2013-01-13 14:26:00,
2013-01-13 06:31:00,21.6,19.3,29.91,ESE,115,0.0,0.0,91,0.00,,---,0.00,VWS V14.01,2013-01-13 14:31:00,
2013-01-13 06:36:00,21.6,19.3,29.91,ESE,115,0.0,0.0,91,0.00,,---,0.00,VWS V14.01,2013-01-13 14:36:00,
2013-01-13 06:41:00,21.4,19.2,29.91,ESE,115,0.0,0.0,91,0.00,,---,0.00,VWS V14.01,2013-01-13 14:41:00,
2013-01-13 06:46:00,21.4,19.2,29.91,ESE,115,0.0,0.0,91,0.00,,---,0.00,VWS V14.01,2013-01-13 14:46:00,
2013-01-13 06:51:00,21.4,19.2,29.91,ESE,115,0.0,0.0,91,0.00,,---,0.00,VWS V14.01,2013-01-13 14:51:00,
2013-01-13 06:56:00,21.4,19.2,29.91,ESE,115,0.0,0.0,91,0.00,,---,0.00,VWS V14.01,2013-01-13 14:56:00,
2013-01-13 07:01:00,21.2,19.0,29.91,ESE,115,0.0,0.0,91,0.00,,---,0.00,VWS V14.01,2013-01-13 15:01:00,
2013-01-13 07:06:00,21.4,19.2,29.91,ESE,115,0.0,0.0,91,0.00,,---,0.00,VWS V14.01,2013-01-13 15:06:00,
2013-01-13 07:11:00,21.2,19.0,29.91,ESE,115,0.0,0.0,91,0.00,,---,0.00,VWS V14.01,2013-01-13 15:11:00,
2013-01-13 07:16:00,21.2,19.0,29.94,ESE,115,0.0,0.0,91,0.00,,---,0.00,VWS V14.01,2013-01-13 15:16:00,
2013-01-13 07:21:00,21.2,19.0,29.94,ESE,115,0.0,0.0,91,0.00,,---,0.00,VWS V14.01,2013-01-13 15:21:00,
2013-01-13 07:26:00,21.2,19.0,29.94,ESE,115,0.0,0.0,91,0.00,,---,0.00,VWS V14.01,2013-01-13 15:26:00,
2013-01-13 07:31:00,21.2,19.0,29.94,ESE,115,0.0,0.0,91,0.00,,---,0.00,VWS V14.01,2013-01-13 15:31:00,
2013-01-13 07:36:00,21.2,19.0,29.94,ESE,115,0.0,0.0,91,0.00,,---,0.00,VWS V14.01,2013-01-13 15:36:00,
2013-01-13 07:41:00,21.2,19.0,29.94,ESE,115,0.0,0.0,91,0.00,,---,0.00,VWS V14.01,2013-01-13 15:41:00,
2013-01-13 07:46:00,21.2,19.0,29.94,ESE,115,0.0,0.0,91,0.00,,---,0.00,VWS V14.01,2013-01-13 15:46:00,
2013-01-13 07:51:00,21.2,19.0,29.94,ESE,115,0.0,0.0,91,0.00,,---,0.00,VWS V14.01,2013-01-13 15:51:00,
2013-01-13 07:56:00,21.2,19.0,29.94,ESE,115,0.0,0.0,91,0.00,,---,0.00,VWS V14.01,2013-01-13 15:56:00,
2013-01-13 08:01:00,21.2,19.0,29.94,ESE,115,0.0,0.0,91,0.00,,---,0.00,VWS V14.01,2013-01-13 16:01:00,
2013-01-13 08:06:00,21.2,19.0,29.94,ESE,115,0.0,0.0,91,0.00,,---,0.00,VWS V14.01,2013-01-13 16:06:00,
2013-01-13 08:11:00,21.2,19.0,29.94,ESE,115,0.0,0.0,91,0.00,,---,0.00,VWS V14.01,2013-01-13 16:11:00,
2013-01-13 08:16:00,21.2,19.0,29.91,ESE,115,0.0,0.0,91,0.00,,---,0.00,VWS V14.01,2013-01-13 16:16:00,
2013-01-13 08:21:00,21.2,19.0,29.91,ESE,115,0.0,0.0,91,0.00,,---,0.00,VWS V14.01,2013-01-13 16:21:00,
2013-01-13 08:26:00,21.2,19.0,29.91,ESE,115,0.0,0.0,91,0.00,,---,0.00,VWS V14.01,2013-01-13 16:26:00,
2013-01-13 08:31:00,21.4,19.2,29.94,ESE,115,0.0,0.0,91,0.00,,---,0.00,VWS V14.01,2013-01-13 16:31:00,
2013-01-13 08:36:00,21.6,19.3,29.94,ESE,115,0.0,0.0,91,0.00,,---,0.00,VWS V14.01,2013-01-13 16:36:00,
2013-01-13 08:41:00,21.7,19.5,29.94,ESE,115,0.0,0.0,91,0.00,,---,0.00,VWS V14.01,2013-01-13 16:41:00,
2013-01-13 08:46:00,21.9,19.7,29.94,ESE,115,0.0,0.0,91,0.00,,---,0.00,VWS V14.01,2013-01-13 16:46:00,
2013-01-13 08:51:00,22.1,19.9,29.94,ESE,115,0.0,0.0,91,0.00,,---,0.00,VWS V14.01,2013-01-13 16:51:00,
2013-01-13 08:56:00,22.5,20.2,29.94,ESE,115,0.0,0.0,91,0.00,,---,0.00,VWS V14.01,2013-01-13 16:56:00,
2013-01-13 09:01:00,22.8,20.9,29.94,ESE,115,0.0,0.0,92,0.00,,---,0.08,VWS V14.01,2013-01-13 17:01:00,
2013-01-13 09:06:00,23.0,21.0,29.94,ESE,115,0.0,0.0,92,0.00,,---,0.00,VWS V14.01,2013-01-13 17:06:00,
2013-01-13 09:11:00,23.0,21.0,29.94,ESE,115,0.0,0.0,92,0.00,,---,0.00,VWS V14.01,2013-01-13 17:11:00,
2013-01-13 09:16:00,23.4,21.1,29.94,ESE,115,0.0,0.0,91,0.00,,---,0.00,VWS V14.01,2013-01-13 17:16:00,
2013-01-13 09:21:00,23.7,21.7,29.94,ESE,115,0.0,0.0,92,0.00,,---,0.00,VWS V14.01,2013-01-13 17:21:00,
2013-01-13 09:26:00,23.9,21.9,29.94,ESE,115,0.0,0.0,92,0.00,,---,0.00,VWS V14.01,2013-01-13 17:26:00,
2013-01-13 09:31:00,24.1,22.1,29.94,ESE,115,0.0,0.0,92,0.00,,---,0.00,VWS V14.01,2013-01-13 17:31:00,
2013-01-13 09:36:00,24.4,22.5,29.94,ESE,115,0.0,0.0,92,0.00,,---,0.00,VWS V14.01,2013-01-13 17:36:00,
2013-01-13 09:41:00,24.4,22.5,29.94,ESE,115,0.0,0.0,92,0.00,,---,0.00,VWS V14.01,2013-01-13 17:41:00,
2013-01-13 09:46:00,24.8,22.8,29.94,ESE,115,0.0,0.0,92,0.00,,---,0.00,VWS V14.01,2013-01-13 17:46:00,
2013-01-13 09:51:00,24.6,22.6,29.94,ESE,115,0.0,0.0,92,0.00,,---,0.00,VWS V14.01,2013-01-13 17:51:00,
2013-01-13 09:56:00,24.4,22.5,29.94,ESE,115,0.0,0.0,92,0.00,,---,0.00,VWS V14.01,2013-01-13 17:56:00,
2013-01-13 10:01:00,24.6,22.6,29.94,ESE,115,0.0,0.0,92,0.00,,---,0.00,VWS V14.01,2013-01-13 18:01:00,
2013-01-13 10:06:00,25.5,23.5,29.94,ESE,115,0.0,0.0,92,0.00,,---,0.00,VWS V14.01,2013-01-13 18:06:00,
2013-01-13 10:11:00,25.7,23.7,29.94,ESE,115,0.0,0.0,92,0.00,,---,0.00,VWS V14.01,2013-01-13 18:11:00,
2013-01-13 10:16:00,25.7,23.7,29.94,ESE,115,0.0,0.0,92,0.00,,---,0.00,VWS V14.01,2013-01-13 18:16:00,
2013-01-13 10:21:00,25.7,23.7,29.94,ESE,115,0.0,0.0,92,0.00,,---,0.00,VWS V14.01,2013-01-13 18:21:00,
2013-01-13 10:26:00,25.9,23.9,29.94,ESE,115,0.0,0.0,92,0.00,,---,0.00,VWS V14.01,2013-01-13 18:26:00,
2013-01-13 10:31:00,26.1,24.1,29.94,ESE,115,0.0,0.0,92,0.00,,---,0.00,VWS V14.01,2013-01-13 18:31:00,
2013-01-13 10:36:00,26.4,24.4,29.94,ESE,115,0.0,0.0,92,0.00,,---,0.00,VWS V14.01,2013-01-13 18:36:00,
2013-01-13 10:41:00,27.0,25.0,29.94,ESE,116,0.0,0.0,92,0.00,,---,0.00,VWS V14.01,2013-01-13 18:41:00,
2013-01-13 10:46:00,27.0,24.7,29.94,ESE,115,0.0,0.0,91,0.00,,---,0.00,VWS V14.01,2013-01-13 18:46:00,
2013-01-13 10:51:00,27.3,25.0,29.94,ESE,116,0.0,0.0,91,0.00,,---,0.00,VWS V14.01,2013-01-13 18:51:00,
2013-01-13 10:56:00,27.9,25.8,29.94,ESE,115,0.0,0.0,92,0.00,,---,0.00,VWS V14.01,2013-01-13 18:56:00,
2013-01-13 11:01:00,28.0,26.0,29.94,ESE,116,0.0,0.0,92,0.00,,---,0.00,VWS V14.01,2013-01-13 19:01:00,
2013-01-13 11:06:00,28.2,26.2,29.94,ESE,116,0.0,0.0,92,0.00,,---,0.00,VWS V14.01,2013-01-13 19:06:00,
2013-01-13 11:11:00,28.4,26.4,29.94,ESE,116,0.0,0.0,92,0.00,,---,0.00,VWS V14.01,2013-01-13 19:11:00,
2013-01-13 11:16:00,28.8,26.5,29.94,ESE,115,0.0,0.0,91,0.00,,---,0.00,VWS V14.01,2013-01-13 19:16:00,
2013-01-13 11:21:00,29.3,27.0,29.94,ESE,115,0.0,0.0,91,0.00,,---,0.00,VWS V14.01,2013-01-13 19:21:00,
2013-01-13 11:26:00,29.5,27.2,29.94,ESE,116,0.0,0.0,91,0.00,,---,0.00,VWS V14.01,2013-01-13 19:26:00,
2013-01-13 11:31:00,29.5,27.2,29.94,ESE,116,0.0,0.0,91,0.00,,---,0.00,VWS V14.01,2013-01-13 19:31:00,
2013-01-13 11:36:00,29.7,27.4,29.94,ESE,115,0.0,0.0,91,0.00,,---,0.00,VWS V14.01,2013-01-13 19:36:00,
2013-01-13 11:41:00,29.8,27.5,29.94,ESE,116,0.0,0.0,91,0.00,,---,0.00,VWS V14.01,2013-01-13 19:41:00,
2013-01-13 11:46:00,30.4,28.1,29.94,ESE,116,0.0,0.0,91,0.00,,---,0.00,VWS V14.01,2013-01-13 19:46:00,
2013-01-13 11:51:00,30.7,28.4,29.94,ESE,115,2.7,3.1,91,0.00,,---,0.00,VWS V14.01,2013-01-13 19:51:00,
2013-01-13 11:56:00,30.9,28.3,29.94,ESE,115,0.0,0.0,90,0.00,,---,0.00,VWS V14.01,2013-01-13 19:56:00,
2013-01-13 12:01:00,31.5,28.9,29.91,ESE,116,0.0,0.0,90,0.00,,---,0.00,VWS V14.01,2013-01-13 20:01:00,
2013-01-13 12:06:00,31.8,29.2,29.91,NNE,27,2.7,3.1,90,0.00,,---,0.00,VWS V14.01,2013-01-13 20:06:00,
2013-01-13 12:11:00,31.8,29.2,29.91,NNE,27,0.0,0.0,90,0.00,,---,0.00,VWS V14.01,2013-01-13 20:11:00,
2013-01-13 12:16:00,31.6,29.0,29.94,NNE,25,2.7,3.1,90,0.00,,---,0.00,VWS V14.01,2013-01-13 20:16:00,
2013-01-13 12:21:00,32.2,29.3,29.94,NNE,16,0.0,0.0,89,0.00,,---,0.00,VWS V14.01,2013-01-13 20:21:00,
2013-01-13 12:26:00,32.4,29.5,29.94,NNE,16,0.0,3.1,89,0.00,,---,0.00,VWS V14.01,2013-01-13 20:26:00,
2013-01-13 12:31:00,32.4,29.5,29.94,NNE,17,0.0,2.7,89,0.00,,---,0.00,VWS V14.01,2013-01-13 20:31:00,
2013-01-13 12:36:00,32.4,29.2,29.94,NNE,32,0.0,0.0,88,0.00,,---,0.00,VWS V14.01,2013-01-13 20:36:00,
2013-01-13 12:41:00,32.5,29.4,29.94,NE,46,0.0,0.0,88,0.00,,---,0.00,VWS V14.01,2013-01-13 20:41:00,
2013-01-13 12:46:00,32.7,29.6,29.91,NNE,31,0.0,0.0,88,0.00,,---,0.00,VWS V14.01,2013-01-13 20:46:00,
2013-01-13 12:51:00,32.7,29.6,29.91,SW,214,0.0,0.0,88,0.00,,---,0.00,VWS V14.01,2013-01-13 20:51:00,
2013-01-13 12:56:00,32.9,29.7,29.91,NNE,32,0.0,3.1,88,0.00,,---,0.00,VWS V14.01,2013-01-13 20:56:00,
2013-01-13 13:01:00,33.1,29.6,29.91,NNE,27,0.0,2.7,87,0.00,,---,0.00,VWS V14.01,2013-01-13 21:01:00,
2013-01-13 13:06:00,33.3,29.8,29.91,NNE,16,2.7,2.7,87,0.00,,---,0.00,VWS V14.01,2013-01-13 21:06:00,
2013-01-13 13:11:00,33.3,29.5,29.91,NNE,21,2.7,3.6,86,0.00,,---,0.00,VWS V14.01,2013-01-13 21:11:00,
2013-01-13 13:16:00,33.3,29.5,29.91,NNE,14,2.2,2.7,86,0.00,,---,0.00,VWS V14.01,2013-01-13 21:16:00,
2013-01-13 13:20:00,33.3,29.2,29.91,NNE,26,0.0,0.0,85,0.00,,---,0.00,VWS V14.01,2013-01-13 21:20:00,
2013-01-13 13:26:00,33.4,29.4,29.91,West,271,0.0,0.0,85,0.00,,---,0.00,VWS V14.01,2013-01-13 21:26:00,
2013-01-13 13:30:00,33.6,29.6,29.91,NE,34,0.0,3.1,85,0.00,,---,0.00,VWS V14.01,2013-01-13 21:30:00,
2013-01-13 13:35:00,33.8,29.5,29.91,NNE,27,0.0,0.0,84,0.00,,---,0.00,VWS V14.01,2013-01-13 21:35:00,
2013-01-13 13:40:00,33.6,29.3,29.91,NNE,27,0.0,0.0,84,0.00,,---,0.00,VWS V14.01,2013-01-13 21:40:00,
2013-01-13 13:45:00,33.6,29.0,29.94,NNE,21,2.7,4.0,83,0.00,,---,0.00,VWS V14.01,2013-01-13 21:45:00,
2013-01-13 13:50:00,33.6,29.0,29.94,NNE,24,0.0,0.0,83,0.00,,---,0.00,VWS V14.01,2013-01-13 21:50:00,
2013-01-13 13:55:00,33.6,29.0,29.94,NE,37,0.0,0.0,83,0.00,,---,0.00,VWS V14.01,2013-01-13 21:55:00,
2013-01-13 14:00:00,33.6,29.0,29.91,NNE,24,0.0,0.0,83,0.00,,---,0.00,VWS V14.01,2013-01-13 22:00:00,
2013-01-13 14:05:00,33.8,28.9,29.91,NE,39,0.0,0.0,82,0.00,,---,0.00,VWS V14.01,2013-01-13 22:05:00,
2013-01-13 14:10:00,33.8,28.9,29.91,NNE,29,0.0,2.7,82,0.00,,---,0.00,VWS V14.01,2013-01-13 22:10:00,
2013-01-13 14:15:00,33.8,28.9,29.94,NNE,29,0.0,0.0,82,0.00,,---,0.00,VWS V14.01,2013-01-13 22:15:00,
2013-01-13 14:20:00,33.8,28.6,29.94,NNE,29,0.0,0.0,81,0.00,,---,0.00,VWS V14.01,2013-01-13 22:20:00,
2013-01-13 14:25:00,33.6,28.7,29.94,NNE,29,0.0,0.0,82,0.00,,---,0.00,VWS V14.01,2013-01-13 22:25:00,
2013-01-13 14:30:00,33.6,28.7,29.94,NNE,29,0.0,0.0,82,0.00,,---,0.00,VWS V14.01,2013-01-13 22:30:00,
2013-01-13 14:35:00,33.4,28.5,29.94,NNE,29,0.0,0.0,82,0.00,,---,0.00,VWS V14.01,2013-01-13 22:35:00,
2013-01-13 14:40:00,33.4,28.8,29.94,NNE,29,0.0,0.0,83,0.00,,---,0.00,VWS V14.01,2013-01-13 22:40:00,
2013-01-13 14:45:00,33.4,28.8,29.94,NNE,29,0.0,0.0,83,0.00,,---,0.00,VWS V14.01,2013-01-13 22:45:00,
2013-01-13 14:50:00,33.4,28.8,29.94,NNE,30,0.0,0.0,83,0.00,,---,0.00,VWS V14.01,2013-01-13 22:50:00,
2013-01-13 14:55:00,33.4,28.5,29.94,NNE,30,0.0,0.0,82,0.00,,---,0.00,VWS V14.01,2013-01-13 22:55:00,
2013-01-13 15:00:00,33.4,28.8,29.94,NNE,30,0.0,0.0,83,0.00,,---,0.00,VWS V14.01,2013-01-13 23:00:00,
2013-01-13 15:05:00,33.4,28.8,29.94,West,280,2.7,2.7,83,0.00,,---,0.00,VWS V14.01,2013-01-13 23:05:00,
2013-01-13 15:10:00,33.4,28.5,29.94,West,280,0.0,0.0,82,0.00,,---,0.00,VWS V14.01,2013-01-13 23:10:00,
2013-01-13 15:15:00,33.4,28.5,29.94,West,280,0.0,0.0,82,0.00,,---,0.00,VWS V14.01,2013-01-13 23:15:00,
2013-01-13 15:20:00,33.4,28.5,29.94,West,280,0.0,0.0,82,0.00,,---,0.00,VWS V14.01,2013-01-13 23:20:00,
2013-01-13 15:25:00,33.4,28.5,29.94,West,281,0.0,0.0,82,0.00,,---,0.00,VWS V14.01,2013-01-13 23:25:00,
2013-01-13 15:30:00,33.4,28.5,29.94,West,280,0.0,0.0,82,0.00,,---,0.00,VWS V14.01,2013-01-13 23:30:00,
2013-01-13 15:35:00,33.4,28.5,29.94,West,281,0.0,0.0,82,0.00,,---,0.00,VWS V14.01,2013-01-13 23:35:00,
2013-01-13 15:40:00,33.4,28.5,29.94,WNW,282,0.0,0.0,82,0.00,,---,0.00,VWS V14.01,2013-01-13 23:40:00,
2013-01-13 15:45:00,33.3,28.4,29.94,West,278,0.0,0.0,82,0.00,,---,0.00,VWS V14.01,2013-01-13 23:45:00,
2013-01-13 15:50:00,33.3,28.7,29.94,West,272,0.0,0.0,83,0.00,,---,0.00,VWS V14.01,2013-01-13 23:50:00,
2013-01-13 15:55:00,33.1,28.5,29.94,West,272,0.0,0.0,83,0.00,,---,0.00,VWS V14.01,2013-01-13 23:55:00,
2013-01-13 16:00:00,32.9,28.3,29.94,West,272,0.0,0.0,83,0.00,,---,0.00,VWS V14.01,2013-01-14 00:00:00,
2013-01-13 16:05:00,32.7,28.1,29.94,West,272,0.0,0.0,83,0.00,,---,0.00,VWS V14.01,2013-01-14 00:05:00,
2013-01-13 16:10:00,32.5,28.2,29.94,West,272,0.0,0.0,84,0.00,,---,0.00,VWS V14.01,2013-01-14 00:10:00,
2013-01-13 16:15:00,32.5,28.2,29.94,West,272,0.0,0.0,84,0.00,,---,0.00,VWS V14.01,2013-01-14 00:15:00,
2013-01-13 16:20:00,32.5,28.2,29.94,West,272,0.0,0.0,84,0.00,,---,0.00,VWS V14.01,2013-01-14 00:20:00,
2013-01-13 16:25:00,32.5,28.5,29.94,West,272,0.0,0.0,85,0.00,,---,0.00,VWS V14.01,2013-01-14 00:25:00,
2013-01-13 16:30:00,32.4,28.4,29.94,West,272,0.0,0.0,85,0.00,,---,0.00,VWS V14.01,2013-01-14 00:30:00,
2013-01-13 16:35:00,32.2,28.5,29.94,West,272,0.0,0.0,86,0.00,,---,0.00,VWS V14.01,2013-01-14 00:35:00,
2013-01-13 16:40:00,32.2,28.5,29.94,West,272,0.0,0.0,86,0.00,,---,0.00,VWS V14.01,2013-01-14 00:40:00,
2013-01-13 16:45:00,31.8,28.1,29.94,West,272,0.0,0.0,86,0.00,,---,0.00,VWS V14.01,2013-01-14 00:45:00,
2013-01-13 16:50:00,31.6,27.9,29.94,West,272,0.0,0.0,86,0.00,,---,0.00,VWS V14.01,2013-01-14 00:50:00,
2013-01-13 16:55:00,31.5,27.8,29.94,West,272,0.0,0.0,86,0.00,,---,0.00,VWS V14.01,2013-01-14 00:55:00,
2013-01-13 17:00:00,31.5,27.8,29.94,West,272,0.0,0.0,86,0.00,,---,0.00,VWS V14.01,2013-01-14 01:00:00,
2013-01-13 17:05:00,31.5,28.0,29.94,West,272,0.0,0.0,87,0.00,,---,0.00,VWS V14.01,2013-01-14 01:05:00,
2013-01-13 17:10:00,31.3,27.9,29.94,West,272,0.0,0.0,87,0.00,,---,0.00,VWS V14.01,2013-01-14 01:10:00,
2013-01-13 17:16:00,31.1,27.7,29.94,West,272,0.0,0.0,87,0.00,,---,0.00,VWS V14.01,2013-01-14 01:16:00,
2013-01-13 17:21:00,31.1,27.7,29.94,West,272,0.0,0.0,87,0.00,,---,0.00,VWS V14.01,2013-01-14 01:21:00,
2013-01-13 17:26:00,31.1,27.7,29.94,West,272,0.0,0.0,87,0.00,,---,0.00,VWS V14.01,2013-01-14 01:26:00,
2013-01-13 17:31:00,31.1,27.7,29.94,West,272,0.0,0.0,87,0.00,,---,0.00,VWS V14.01,2013-01-14 01:31:00,
2013-01-13 17:36:00,30.9,27.5,29.94,West,272,0.0,0.0,87,0.00,,---,0.00,VWS V14.01,2013-01-14 01:36:00,
2013-01-13 17:41:00,30.9,27.5,29.94,West,272,0.0,0.0,87,0.00,,---,0.00,VWS V14.01,2013-01-14 01:41:00,
2013-01-13 17:46:00,30.7,27.3,29.94,West,272,0.0,0.0,87,0.00,,---,0.00,VWS V14.01,2013-01-14 01:46:00,
2013-01-13 17:51:00,30.4,27.3,29.94,West,272,0.0,0.0,88,0.00,,---,0.00,VWS V14.01,2013-01-14 01:51:00,
2013-01-13 17:56:00,30.6,27.4,29.94,West,272,0.0,0.0,88,0.00,,---,0.00,VWS V14.01,2013-01-14 01:56:00,
2013-01-13 18:01:00,30.2,27.1,29.94,West,272,0.0,0.0,88,0.00,,---,0.00,VWS V14.01,2013-01-14 02:01:00,
2013-01-13 18:06:00,30.2,27.1,29.94,West,272,0.0,0.0,88,0.00,,---,0.00,VWS V14.01,2013-01-14 02:06:00,
2013-01-13 18:11:00,30.2,27.1,29.94,West,272,0.0,0.0,88,0.00,,---,0.00,VWS V14.01,2013-01-14 02:11:00,
2013-01-13 18:16:00,30.0,26.9,29.94,West,272,0.0,0.0,88,0.00,,---,0.00,VWS V14.01,2013-01-14 02:16:00,
2013-01-13 18:21:00,29.8,26.7,29.94,West,272,0.0,0.0,88,0.00,,---,0.00,VWS V14.01,2013-01-14 02:21:00,
2013-01-13 18:26:00,29.7,26.8,29.94,West,272,0.0,0.0,89,0.00,,---,0.00,VWS V14.01,2013-01-14 02:26:00,
2013-01-13 18:31:00,29.7,26.8,29.94,West,272,0.0,0.0,89,0.00,,---,0.00,VWS V14.01,2013-01-14 02:31:00,
2013-01-13 18:36:00,29.5,26.6,29.94,West,272,0.0,0.0,89,0.00,,---,0.00,VWS V14.01,2013-01-14 02:36:00,
2013-01-13 18:41:00,29.3,26.5,29.94,West,272,0.0,0.0,89,0.00,,---,0.00,VWS V14.01,2013-01-14 02:41:00,
2013-01-13 18:46:00,29.3,26.5,29.94,West,272,0.0,0.0,89,0.00,,---,0.00,VWS V14.01,2013-01-14 02:46:00,
2013-01-13 18:51:00,29.1,26.3,29.94,West,272,0.0,0.0,89,0.00,,---,0.00,VWS V14.01,2013-01-14 02:51:00,
2013-01-13 18:56:00,29.1,26.3,29.94,West,272,0.0,0.0,89,0.00,,---,0.00,VWS V14.01,2013-01-14 02:56:00,
2013-01-13 19:01:00,29.1,26.3,29.91,West,272,0.0,0.0,89,0.00,,---,0.00,VWS V14.01,2013-01-14 03:01:00,
2013-01-13 19:06:00,28.9,26.1,29.91,West,272,0.0,0.0,89,0.00,,---,0.00,VWS V14.01,2013-01-14 03:06:00,
2013-01-13 19:11:00,28.9,26.1,29.91,West,272,0.0,0.0,89,0.00,,---,0.00,VWS V14.01,2013-01-14 03:11:00,
2013-01-13 19:16:00,28.9,26.4,29.94,West,272,0.0,0.0,90,0.00,,---,0.00,VWS V14.01,2013-01-14 03:16:00,
2013-01-13 19:21:00,28.9,26.4,29.94,West,272,0.0,0.0,90,0.00,,---,0.00,VWS V14.01,2013-01-14 03:21:00,
2013-01-13 19:26:00,28.9,26.4,29.94,West,272,0.0,0.0,90,0.00,,---,0.00,VWS V14.01,2013-01-14 03:26:00,
2013-01-13 19:31:00,28.9,26.4,29.94,West,272,0.0,0.0,90,0.00,,---,0.00,VWS V14.01,2013-01-14 03:31:00,
2013-01-13 19:36:00,28.9,26.4,29.94,West,272,0.0,0.0,90,0.00,,---,0.00,VWS V14.01,2013-01-14 03:36:00,
2013-01-13 19:41:00,28.9,26.4,29.94,West,272,0.0,0.0,90,0.00,,---,0.00,VWS V14.01,2013-01-14 03:41:00,
2013-01-13 19:46:00,28.9,26.4,29.94,West,272,0.0,0.0,90,0.00,,---,0.00,VWS V14.01,2013-01-14 03:46:00,
2013-01-13 19:51:00,28.9,26.4,29.94,West,272,0.0,0.0,90,0.00,,---,0.00,VWS V14.01,2013-01-14 03:51:00,
2013-01-13 19:56:00,28.9,26.6,29.94,West,272,0.0,0.0,91,0.00,,---,0.00,VWS V14.01,2013-01-14 03:56:00,
2013-01-13 20:01:00,28.9,26.6,29.94,West,272,0.0,0.0,91,0.00,,---,0.00,VWS V14.01,2013-01-14 04:01:00,
2013-01-13 20:06:00,28.9,26.6,29.94,West,272,0.0,0.0,91,0.00,,---,0.00,VWS V14.01,2013-01-14 04:06:00,
2013-01-13 20:11:00,28.9,26.6,29.94,West,272,0.0,0.0,91,0.00,,---,0.00,VWS V14.01,2013-01-14 04:11:00,
2013-01-13 20:16:00,28.9,26.6,29.94,West,272,0.0,0.0,91,0.00,,---,0.00,VWS V14.01,2013-01-14 04:16:00,
2013-01-13 20:21:00,28.9,26.6,29.94,West,272,0.0,0.0,91,0.00,,---,0.00,VWS V14.01,2013-01-14 04:21:00,
2013-01-13 20:26:00,28.9,26.6,29.94,West,272,0.0,0.0,91,0.00,,---,0.00,VWS V14.01,2013-01-14 04:26:00,
2013-01-13 20:31:00,28.9,26.6,29.97,West,272,0.0,0.0,91,0.00,,---,0.00,VWS V14.01,2013-01-14 04:31:00,
2013-01-13 20:36:00,28.9,26.6,29.97,West,272,0.0,0.0,91,0.00,,---,0.00,VWS V14.01,2013-01-14 04:36:00,
2013-01-13 20:41:00,28.9,26.6,29.97,West,272,0.0,0.0,91,0.00,,---,0.00,VWS V14.01,2013-01-14 04:41:00,
2013-01-13 20:46:00,28.9,26.9,29.94,West,272,0.0,0.0,92,0.00,,---,0.00,VWS V14.01,2013-01-14 04:46:00,
2013-01-13 20:51:00,28.9,26.9,29.94,West,272,0.0,0.0,92,0.00,,---,0.00,VWS V14.01,2013-01-14 04:51:00,
2013-01-13 20:56:00,29.1,27.1,29.94,West,272,0.0,0.0,92,0.00,,---,0.00,VWS V14.01,2013-01-14 04:56:00,
2013-01-13 21:00:00,29.1,27.1,29.94,West,272,0.0,0.0,92,0.00,,---,0.00,VWS V14.01,2013-01-14 05:00:00,
2013-01-13 21:01:00,29.1,27.1,29.94,West,272,0.0,0.0,92,0.00,,---,0.00,VWS V14.01,2013-01-14 05:01:00,
2013-01-13 21:06:00,29.1,27.1,29.94,West,272,0.0,0.0,92,0.00,,---,0.00,VWS V14.01,2013-01-14 05:06:00,
2013-01-13 21:11:00,29.3,27.3,29.94,West,272,0.0,0.0,92,0.00,,---,0.00,VWS V14.01,2013-01-14 05:11:00,
2013-01-13 21:16:00,29.3,27.5,29.94,West,272,0.0,0.0,93,0.00,,---,0.00,VWS V14.01,2013-01-14 05:16:00,
2013-01-13 21:21:00,29.3,27.5,29.94,West,272,0.0,0.0,93,0.00,,---,0.00,VWS V14.01,2013-01-14 05:21:00,
2013-01-13 21:26:00,29.3,27.5,29.94,West,272,0.0,0.0,93,0.00,,---,0.00,VWS V14.01,2013-01-14 05:26:00,
2013-01-13 21:31:00,29.5,27.7,29.94,West,272,0.0,0.0,93,0.00,,---,0.00,VWS V14.01,2013-01-14 05:31:00,
2013-01-13 21:36:00,29.5,27.7,29.94,West,272,0.0,0.0,93,0.00,,---,0.00,VWS V14.01,2013-01-14 05:36:00,
2013-01-13 21:41:00,29.5,27.7,29.94,West,272,0.0,0.0,93,0.00,,---,0.00,VWS V14.01,2013-01-14 05:41:00,
2013-01-13 21:46:00,29.5,27.7,29.94,West,272,0.0,0.0,93,0.00,,---,0.00,VWS V14.01,2013-01-14 05:46:00,
2013-01-13 21:51:00,29.5,27.7,29.94,West,272,0.0,0.0,93,0.00,,---,0.00,VWS V14.01,2013-01-14 05:51:00,
2013-01-13 21:56:00,29.5,28.0,29.94,West,272,0.0,0.0,94,0.00,,---,0.00,VWS V14.01,2013-01-14 05:56:00,
2013-01-13 22:01:00,29.5,27.7,29.94,West,272,0.0,0.0,93,0.00,,---,0.00,VWS V14.01,2013-01-14 06:01:00,
2013-01-13 22:06:00,29.5,27.7,29.94,West,272,0.0,0.0,93,0.00,,---,0.00,VWS V14.01,2013-01-14 06:06:00,
2013-01-13 22:11:00,29.7,27.9,29.94,West,272,0.0,0.0,93,0.00,,---,0.00,VWS V14.01,2013-01-14 06:11:00,
2013-01-13 22:16:00,29.7,28.1,29.97,West,272,0.0,0.0,94,0.00,,---,0.00,VWS V14.01,2013-01-14 06:16:00,
2013-01-13 22:21:00,29.7,28.1,29.97,West,272,0.0,0.0,94,0.00,,---,0.00,VWS V14.01,2013-01-14 06:21:00,
2013-01-13 22:26:00,29.7,28.1,29.97,West,272,0.0,0.0,94,0.00,,---,0.00,VWS V14.01,2013-01-14 06:26:00,
2013-01-13 22:31:00,29.7,27.9,29.97,West,272,0.0,0.0,93,0.00,,---,0.00,VWS V14.01,2013-01-14 06:31:00,
2013-01-13 22:36:00,29.7,27.9,29.97,West,272,0.0,0.0,93,0.00,,---,0.00,VWS V14.01,2013-01-14 06:36:00,
2013-01-13 22:41:00,29.7,27.9,29.97,West,272,0.0,0.0,93,0.00,,---,0.00,VWS V14.01,2013-01-14 06:41:00,
2013-01-13 22:46:00,29.7,27.9,29.97,West,272,0.0,0.0,93,0.00,,---,0.00,VWS V14.01,2013-01-14 06:46:00,
2013-01-13 22:51:00,29.7,27.9,29.97,West,272,0.0,0.0,93,0.00,,---,0.00,VWS V14.01,2013-01-14 06:51:00,
2013-01-13 22:56:00,29.8,28.1,29.97,West,272,0.0,0.0,93,0.00,,---,0.00,VWS V14.01,2013-01-14 06:56:00,
2013-01-13 23:01:00,29.8,28.3,29.97,West,272,0.0,0.0,94,0.00,,---,0.00,VWS V14.01,2013-01-14 07:01:00,
2013-01-13 23:06:00,29.8,28.3,29.97,West,272,0.0,0.0,94,0.00,,---,0.00,VWS V14.01,2013-01-14 07:06:00,
2013-01-13 23:11:00,29.8,28.3,29.97,West,272,0.0,0.0,94,0.00,,---,0.00,VWS V14.01,2013-01-14 07:11:00,
2013-01-13 23:16:00,29.8,28.3,29.97,West,272,0.0,0.0,94,0.00,,---,0.00,VWS V14.01,2013-01-14 07:16:00,
2013-01-13 23:21:00,29.8,28.3,29.97,West,272,0.0,0.0,94,0.00,,---,0.00,VWS V14.01,2013-01-14 07:21:00,
2013-01-13 23:26:00,29.8,28.3,29.97,West,272,0.0,0.0,94,0.00,,---,0.00,VWS V14.01,2013-01-14 07:26:00,
2013-01-13 23:31:00,29.8,28.3,29.94,West,272,0.0,0.0,94,0.00,,---,0.00,VWS V14.01,2013-01-14 07:31:00,
2013-01-13 23:36:00,30.0,28.5,29.94,West,272,0.0,0.0,94,0.00,,---,0.00,VWS V14.01,2013-01-14 07:36:00,
2013-01-13 23:41:00,30.0,28.5,29.94,West,272,0.0,0.0,94,0.00,,---,0.00,VWS V14.01,2013-01-14 07:41:00,
2013-01-13 23:46:00,30.0,28.5,29.94,West,272,0.0,0.0,94,0.00,,---,0.00,VWS V14.01,2013-01-14 07:46:00,
2013-01-13 23:51:00,30.0,28.5,29.94,West,272,0.0,0.0,94,0.00,,---,0.00,VWS V14.01,2013-01-14 07:51:00,
2013-01-13 23:56:00,30.0,28.5,29.94,West,272,0.0,0.0,94,0.00,,---,0.00,VWS V14.01,2013-01-14 07:56:00,